Location: Hardenberg
(52.5670°N, 6.6170°E)
Time: 09:59:51
(UTC+02:00)

ISS - Visible Passes

Search period start: 23 September 2018 00:00
Search period end: 03 October 2018 00:00
Orbit: 403 x 408 km, 51.6° (Epoch: 23 September)

Date Brightness Start Highest point End Pass type
(mag) Time Alt. Az. Time Alt. Az. Time Alt. Az.
23 Sep -2.2 21:10:30 10° SSW 21:12:21 21° S 21:12:21 21° S visible
24 Sep -1.9 20:19:24 10° S 20:21:30 16° SE 20:22:54 13° ESE visible
24 Sep -1.8 21:54:17 10° WSW 21:55:36 21° SW 21:55:36 21° SW visible
25 Sep -3.2 21:02:35 10° SW 21:05:41 37° SSE 21:06:00 36° SE visible
26 Sep -2.6 20:11:03 10° SSW 20:13:54 27° SSE 20:16:15 13° E visible
26 Sep -2.6 21:46:49 10° WSW 21:48:56 36° WSW 21:48:56 36° WSW visible
27 Sep -3.7 20:54:58 10° WSW 20:58:12 55° SSE 20:59:06 39° ESE visible
27 Sep -0.8 22:31:19 10° W 22:31:47 13° W 22:31:47 13° W visible
28 Sep -3.2 20:03:11 10° SW 20:06:20 42° SSE 20:09:12 12° E visible
28 Sep -3.0 21:39:23 10° W 21:41:52 47° WSW 21:41:52 47° WSW visible
29 Sep -3.8 20:47:27 10° WSW 20:50:45 72° S 20:51:54 37° E visible
29 Sep -0.9 22:23:54 10° W 22:24:34 15° W 22:24:34 15° W visible
30 Sep -3.6 19:55:33 10° WSW 19:58:49 61° SSE 20:01:54 11° E visible
30 Sep -3.1 21:31:56 10° W 21:34:34 52° WSW 21:34:34 52° WSW visible
01 Oct -3.9 20:39:58 10° W 20:43:16 78° S 20:44:32 34° E visible
01 Oct -0.9 22:16:27 10° W 22:17:12 16° W 22:17:12 16° W visible
02 Oct -3.7 19:48:00 10° W 19:51:17 74° S 19:54:30 11° E visible
02 Oct -3.1 21:24:27 10° W 21:27:09 50° WSW 21:27:09 50° WSW visible
